RH
53 53 54 56 63 61 59 55 57 61 60 57 47 43 41 37 34 46 65 60 68 57 62 60 62 70 65 45 39 38 31 27 32 33 36 45 48 49 47 44 40 40 39 38 36
52 58 64 71 68 61 57 52 48 52 55 55 49 45 45 41 39 43 55 58 71 64 66 65 63 70 69 49 39 40 34 26 29 34 40 42 46 45 43 43 40 37 36 37 34
56 59 65 74 74 71 69 63 56 50 46 50 48 43 45 46 46 38 49 59 73 69 71 69 66 69 70 54 41 40 36 27 28 34 36 39 40 41 38 39 37 35 34 36 35
57 65 81 84 80 79 76 64 53 52 49 47 46 42 48 55 52 33 40 58 70 73 75 70 68 66 71 56 41 41 34 28 27 33 33 34 36 36 36 37 36 37 34 35 37
71 79 76 82 79 77 77 78 65 60 55 54 45 45 57 61 47 55 29 56 75 81 77 69 66 66 73 57 40 40 33 29 28 27 32 30 30 33 34 37 36 36 38 36 37
79 75 72 74 77 79 81 78 70 66 63 54 50 58 62 59 38 59 47 46 67 81 81 74 67 68 73 59 40 34 36 30 34 30 27 28 29 30 31 37 38 35 38 38 38
75 77 71 69 70 73 73 71 67 75 75 67 62 74 73 56 40 61 61 51 62 80 81 73 74 72 70 62 38 31 31 32 30 30 29 34 32 29 28 32 32 33 36 38 38
73 74 68 60 58 64 67 69 76 85 76 66 72 83 77 70 57 63 71 72 71 78 78 81 78 73 66 53 35 30 30 33 28 30 28 27 29 31 33 30 31 30 33 36 39
85 82 85 72 65 64 73 84 94 96 81 75 82 77 73 86 86 65 73 77 77 84 82 88 80 71 65 51 35 29 28 31 26 31 27 26 22 25 29 29 31 32 34 35 35
91 92 96 97 95 89 91 95 97 97 87 84 88 90 92 84 89 86 82 85 83 89 90 85 76 65 61 43 32 30 28 30 30 31 27 26 25 21 24 26 28 30 31 31 29
92 89 92 92 95 92 94 99 98 96 95 85 73 78 88 98 98 97 86 91 93 85 86 81 70 58 52 30 30 34 32 28 27 29 25 25 24 24 23 23 27 28 26 25 22
92 93 92 96 94 97 97 98 98 97 98 98 94 96 97 92 96 97 95 94 94 94 83 78 66 51 41 33 32 31 31 29 28 26 21 23 29 27 23 24 25 24 23 22 21
92 94 95 91 96 95 97 96 96 98 98 99 95 97 94 98 98 95 95 92 89 91 81 67 55 43 44 33 29 29 33 37 33 25 23 25 32 28 27 27 25 24 24 23 22
94 94 91 93 95 93 94 96 96 97 95 98 96 97 96 98 96 94 95 86 93 87 69 56 47 42 34 28 25 30 29 33 27 27 34 27 37 30 29 29 29 26 26 23 20
92 95 94 95 89 91 94 94 97 98 98 97 98 98 98 95 96 97 88 83 75 66 57 47 43 33 28 27 28 39 30 27 26 27 30 29 33 30 28 28 26 23 23 23 23
92 90 92 94 94 93 93 95 97 97 98 97 97 97 95 95 93 90 85 73 62 54 47 36 30 27 29 28 27 31 28 27 26 27 32 26 27 30 27 27 24 24 26 26 26
87 90 88 92 89 88 92 95 96 92 97 97 97 95 92 92 90 80 68 59 53 49 39 31 26 26 27 29 28 30 30 39 42 38 36 26 27 26 24 23 24 25 24 25 26
82 86 84 82 83 83 88 93 91 94 93 96 96 95 93 87 83 70 63 58 50 45 38 36 35 31 29 29 30 30 31 45 57 51 38 28 28 23 22 22 24 25 27 30 31
67 76 79 76 76 81 91 91 95 89 91 93 95 95 96 87 79 73 62 58 52 48 47 42 41 35 34 33 31 32 37 35 40 37 40 33 29 29 27 30 32 33 35 36 35
56 67 72 74 74 76 78 83 87 88 89 89 91 90 94 89 81 68 65 63 56 50 49 43 47 42 42 37 34 33 33 37 38 40 39 34 32 35 31 32 32 35 35 37 37
51 59 61 67 68 69 75 80 82 81 82 86 80 85 88 86 79 67 63 62 57 54 49 47 46 48 44 41 39 38 36 35 35 36 43 42 38 36 35 33 33 34 34 34 34
53 60 66 66 67 72 76 74 78 79 78 76 76 76 78 80 78 74 72 68 62 54 51 51 52 53 49 46 44 41 41 41 45 43 43 42 40 32 33 32 32 31 32 31 29
50 62 67 64 71 72 74 75 76 77 74 73 73 72 74 76 77 75 76 75 71 67 66 60 58 61 59 52 47 47 44 41 42 43 49 45 35 29 29 30 31 32 33 34 35
50 60 67 68 63 68 68 71 74 75 74 71 71 70 68 69 68 71 71 73 72 69 65 60 59 58 56 52 49 50 45 42 42 43 37 35 30 27 30 32 33 35 38 43 45
48 51 64 66 64 61 60 57 57 61 65 66 67 65 63 67 67 69 67 67 65 63 60 58 57 54 52 46 42 38 35 32 34 30 38 28 32 30 33 38 44 47 47 48 48
45 46 51 56 55 53 55 57 54 54 54 57 59 59 59 62 61 63 59 56 54 49 47 45 46 41 37 32 30 30 26 28 32 35 38 41 42 43 44 46 45 44 43 43 44
39 40 43 45 46 44 47 45 46 43 44 49 50 48 48 47 48 48 48 46 42 39 37 35 33 33 33 32 37 41 41 43 44 44 43 43 41 41 41 40 38 39 41 43 43